sat.trackr.live / text

‹ back to catalog

STARLINK-35278

NORAD 65902 · 2025-224W

PAYLOAD ACTIVE UNKNOWN

§ Identity

Operator
Country
US
Launch date
2025-10-07
Launch site
AFETR
Launch vehicle
Mass (kg)
RCS (m²)

Purposes: comms

External: N2YO · Heavens-Above · Gunter

§ Orbital elements

Epoch: 2026-05-25T01:29:14.652960Z

Period
94.11 min
Inclination
53.1593°
Eccentricity
0.0001204
Mean motion
15.30203277 rev/d
Perigee alt
474.4 km
Apogee alt
476.0 km
Semi-major
6,853.3 km
B*
9.4605e-4
RAAN
16.8544°
Arg perigee
83.7444°
Mean anomaly
276.3694°
Rev number
3,656

§ Raw data

STARLINK-352781 65902U 25224W   26145.06197515  .00027768  00000+0  94605-3 0  99952 65902  53.1593  16.8544 0001204  83.7444 276.3694 15.30203277 36562

JSON: /api/v1/satellites/65902 · /tle

For live sub-satellite position, see the globe view (requires WebGL).

§ Visibility from observer

Set your observer location to see the next 7 days of passes ≥ 10°. The values pass through the URL so the page stays shareable.

No JS? Fill the form by hand. The geolocation button needs JavaScript.